Flag for Israel Weather past 2 weeks in Netanya, Israel

Now
68 °F

Scattered clouds.


Feels Like: 68 °F
Forecast: 61 / 67 °F
Wind: 13 mph from Southwest

Location: Dov Airport

Current Time: Dec 27, 2014 at 3:01:18 PM

Latest Report: Dec 27, 2014 at 1:50 PM


Visibility: N/A

Pressure: 29.98 "Hg

Humidity: 69%

Dew point: 57 °F

Location of NetanyaLocation

Historic Weather in Netanya — Graph

°F

Netanya temperature yesterday

Maximum temperature yesterday: 68 °F (at 10:50 AM)
Minimum temperature yesterday: 55 °F (at 5:50 AM)
Average temperature yesterday: 63 °F

Past Weeks' High & Low Weather Summary

 TemperatureHumidityPressure
High72 °F (Dec 17, 11:50 AM)88% (Dec 14, 5:50 AM)30.27 "Hg (Dec 14, 5:50 AM)
Low54 °F (Dec 25, 6:50 AM)29% (Dec 25, 1:50 PM)29.92 "Hg (Dec 12, 1:50 PM)
Average63 °F63%30.09 "Hg
* Reported Dec 12 1:50 PM — Dec 27 1:50 PM, Netanya, Weather by CustomWeather, © 2014

Note: Actual official high and low records may vary slightly from our data, if they occured in-between our weather recording intervals... More about our weather records

Advertising

Netanya weather history for previous 24 hours

 ConditionsComfort  
Time TempWeatherWind HumidityBarometerVisibility
1:50 PM
Dec 27
68 °FScattered clouds.13 mph69%29.98 "HgN/A
12:50 PM68 °FScattered clouds.13 mph64%29.98 "HgN/A
11:50 AM68 °FScattered clouds.12 mph64%29.98 "HgN/A
10:50 AM68 °FPassing clouds.6 mph60%30.01 "HgN/A
9:50 AM64 °FPassing clouds.8 mph68%30.04 "HgN/A
8:50 AM61 °FScattered clouds.8 mph72%30.04 "HgN/A
7:50 AM59 °FPassing clouds.7 mph77%30.01 "HgN/A
6:50 AM57 °FScattered clouds.8 mph82%30.01 "Hg6 mi
6:00 AM57 °FPassing clouds.8 mph82%29.98 "Hg5 mi
9:50 PM
Dec 26
59 °FClear.5 mph82%30.01 "Hg10 mi
8:50 PM59 °FClear.5 mph82%29.98 "Hg10 mi
7:50 PM61 °FClear.5 mph77%29.98 "Hg10 mi
6:50 PM63 °FClear.1 mph73%29.98 "Hg10 mi
5:50 PM64 °FClear.5 mph68%29.98 "Hg10 mi
4:50 PM66 °FClear.7 mph68%29.98 "Hg10 mi
3:50 PM66 °FSunny.6 mph68%29.95 "Hg10 mi
Weather by CustomWeather, © 2014

See weather overviewHow to use our weather pages